Weather History for KPSX - September, 2013

Change the Weather History Date:

Monday, September 16, 2013

  Actual Average Record
Temperature  
Mean Temperature 84 °F -  
Max Temperature 91 °F 88 °F 97 °F (1953)
Min Temperature 77 °F 71 °F 57 °F (1979)
Cooling Degree Days 19    
Growing Degree Days 34 (Base 50)    
Moisture  
Dew Point 75 °F    
Average Humidity 78    
Maximum Humidity 90    
Minimum Humidity 57    
Precipitation  
Precipitation 0.11 in - - ()
Sea Level Pressure  
Sea Level Pressure 29.97 in    
Wind  
Wind Speed 12 mph (East)    
Max Wind Speed 21 mph    
Max Gust Speed 29 mph    
Visibility 10 miles    
Events Rain    
Averages and records for this station are not official NWS values.
T = Trace of Precipitation, MM = Missing Value Source: NWS Daily Summary

Daily Weather History Graph

Daily Weather History Graph

Search for Another Location

Airport or City:

Trip Planner

Search our weather history database for the weather conditions in past years. The results will help you decide how hot, cold, wet, or windy it might be!

Date:

Astronomy

Sep. 16, 2013 Rise Set
Actual Time 7:10 AM CDT 7:28 PM CDT
Civil Twilight 6:46 AM CDT 7:52 PM CDT
Nautical Twilight 6:19 AM CDT 8:19 PM CDT
Astronomical Twilight 5:51 AM CDT 8:47 PM CDT
Moon 5:29 PM CDT (9/16) 4:09 AM CDT (9/16)
Length of Visible Light 13h 05m
Length of Day
12h 17m
Waxing Gibbous, 90% of the Moon is Illuminated
Sep 16
Waxing Gibbous
Sep 19
Full
Sep 26
Last Quarter
Oct 4
New
Oct 11
First Quarter

Hourly Weather History & Observations

Time (CDT) Temp. Heat Index Dew Point Humidity Pressure Visibility Wind Dir Wind Speed Gust Speed Precip Events Conditions
12:04 AM 78.8 °F - 75.2 °F 89% 29.97 in 3.0 mi East 10.4 mph - 0.09 in Rain Light Rain
12:53 AM 80.1 °F 85.4 °F 75.9 °F 87% 29.96 in 8.0 mi East 20.7 mph 28.8 mph 0.09 in   Scattered Clouds
1:53 AM 78.1 °F - 75.0 °F 90% 29.96 in 9.0 mi ENE 8.1 mph - 0.02 in   Clear
2:53 AM 78.1 °F - 75.0 °F 90% 29.95 in 10.0 mi ENE 10.4 mph - N/A   Partly Cloudy
3:53 AM 78.1 °F - 75.0 °F 90% 29.94 in 9.0 mi NE 6.9 mph - N/A   Clear
4:53 AM 77.0 °F - 73.9 °F 90% 29.93 in 10.0 mi ENE 9.2 mph - N/A   Clear
5:53 AM 78.1 °F - 75.0 °F 90% 29.93 in 10.0 mi ENE 10.4 mph - N/A   Partly Cloudy
6:53 AM 79.0 °F - 75.0 °F 88% 29.94 in 10.0 mi ENE 6.9 mph - N/A   Partly Cloudy
7:53 AM 78.1 °F - 75.0 °F 90% 29.97 in 10.0 mi ENE 4.6 mph - N/A   Clear
8:53 AM 82.0 °F 90.2 °F 77.0 °F 85% 29.98 in 10.0 mi ENE 8.1 mph - N/A   Clear
9:53 AM 86.0 °F 95.1 °F 75.0 °F 70% 29.99 in 10.0 mi East 17.3 mph - N/A   Partly Cloudy
10:53 AM 87.1 °F 96.3 °F 75.0 °F 67% 30.00 in 10.0 mi East 17.3 mph - N/A   Partly Cloudy
11:53 AM 88.0 °F 96.5 °F 73.9 °F 63% 30.00 in 10.0 mi ESE 17.3 mph 23.0 mph N/A   Partly Cloudy
12:53 PM 89.1 °F 98.0 °F 73.9 °F 61% 30.00 in 10.0 mi East 11.5 mph - N/A   Clear
1:53 PM 91.0 °F 100.4 °F 73.9 °F 57% 29.98 in 10.0 mi ESE 16.1 mph 21.9 mph N/A   Clear
2:53 PM 89.1 °F 98.0 °F 73.9 °F 61% 29.96 in 10.0 mi ESE 18.4 mph - N/A   Clear
3:53 PM 87.1 °F 95.4 °F 73.9 °F 65% 29.95 in 10.0 mi ESE 15.0 mph 23.0 mph N/A   Clear
4:53 PM 89.1 °F 99.1 °F 75.0 °F 63% 29.94 in 10.0 mi East 20.7 mph 26.5 mph N/A   Partly Cloudy
5:53 PM 86.0 °F 93.8 °F 73.9 °F 67% 29.94 in 10.0 mi East 16.1 mph - N/A   Clear
6:53 PM 84.9 °F 94.1 °F 75.9 °F 74% 29.94 in 10.0 mi East 12.7 mph - N/A   Clear
7:53 PM 82.9 °F 90.8 °F 75.9 °F 79% 29.96 in 10.0 mi East 9.2 mph - N/A   Clear
8:53 PM 82.0 °F 89.4 °F 75.9 °F 82% 29.97 in 10.0 mi East 8.1 mph - N/A   Clear
9:53 PM 82.0 °F 88.6 °F 75.0 °F 79% 29.99 in 10.0 mi East 8.1 mph - N/A   Clear
10:53 PM 81.0 °F 87.3 °F 75.9 °F 85% 29.99 in 9.0 mi East 5.8 mph - N/A   Clear
11:53 PM 81.0 °F 87.3 °F 75.9 °F 85% 29.99 in 9.0 mi East 6.9 mph - N/A   Clear